| time (UTC) | temp F | wind direction | speed knots | gust knots | rain 1hr in | rain 24hr in | rain mn in | humidity % | barometer mb |
| 20260505153033 | 35 | 63 | 3.5 | 7.8 | 0.01 | 0.19 | 0.11 | 94 | 1010.6 |
| 20260505151529 | 35 | 76 | 0.9 | 8.7 | 0.01 | 0.19 | 0.11 | 94 | 1010.5 |
| 20260505124509 | 36 | 286 | 8.7 | 13.9 | 0.04 | 0.16 | 0.08 | 94 | 1007.7 |
| 20260505123007 | 36 | 290 | 8.7 | 14.8 | 0.05 | 0.15 | 0.07 | 94 | 1007.4 |
| 20260505121504 | 37 | 311 | 10.4 | 15.6 | 0.06 | 0.15 | 0.07 | 94 | 1007.5 |
| 20260505120114 | 37 | 315 | 10.4 | 14.8 | 0.06 | 0.14 | 0.06 | 93 | 1007.3 |
| 20260505114558 | 38 | 317 | 11.3 | 17.4 | 0.04 | 0.12 | 0.04 | 93 | 1007.1 |
| 20260505113056 | 40 | 317 | 9.6 | 13.9 | 0.02 | 0.10 | 0.02 | 93 | 1006.9 |
| 20260505111551 | 40 | 294 | 6.1 | 13.9 | 0.01 | 0.09 | 0.01 | 93 | 1006.8 |
| 20260505101545 | 42 | 9 | 0.0 | 2.6 | 0.00 | 0.08 | 0.00 | 92 | 1005.8 |
| 20260505100042 | 42 | 288 | 0.9 | 3.5 | 0.00 | 0.08 | 0.00 | 92 | 1005.6 |
| 20260505094540 | 42 | 333 | 0.9 | 4.3 | 0.00 | 0.08 | 0.00 | 92 | 1005.1 |
| 20260505093037 | 43 | 88 | 1.7 | 2.6 | 0.00 | 0.08 | 0.00 | 92 | 1005.5 |
| 20260505091538 | 43 | 88 | 1.7 | 5.2 | 0.00 | 0.08 | 0.00 | 92 | 1005.6 |
| 20260505090036 | 43 | 88 | 2.6 | 5.2 | 0.00 | 0.08 | 0.00 | 92 | 1005.6 |
| 20260505084542 | 43 | 80 | 1.7 | 5.2 | 0.00 | 0.08 | 0.00 | 92 | 1005.5 |
| 20260505083031 | 43 | 106 | 4.3 | 7.8 | 0.00 | 0.08 | 0.00 | 92 | 1005.5 |
| 20260505081528 | 44 | 94 | 3.5 | 7.0 | 0.00 | 0.08 | 0.00 | 92 | 1005.9 |
| 20260505080025 | 44 | 116 | 2.6 | 4.3 | 0.00 | 0.08 | 0.00 | 92 | 1006.1 |
| 20260505074524 | 44 | 151 | 1.7 | 4.3 | 0.00 | 0.08 | 0.00 | 92 | 1006.1 |
| 20260505073033 | 44 | 154 | 3.5 | 7.0 | 0.00 | 0.08 | 0.00 | 92 | 1006.2 |
| 20260505071521 | 44 | 146 | 0.9 | 7.8 | 0.00 | 0.08 | 0.00 | 92 | 1006.4 |
| 20260505070029 | 44 | 150 | 2.6 | 4.3 | 0.00 | 0.08 | 0.00 | 91 | 1006.7 |
| 20260505064515 | 45 | 88 | 0.0 | 0.0 | 0.01 | 0.08 | 0.00 | 92 | 1006.8 |
| 20260505063015 | 45 | 88 | 0.0 | 0.0 | 0.01 | 0.08 | 0.00 | 91 | 1006.9 |
| 20260505061519 | 44 | 88 | 0.0 | 0.9 | 0.02 | 0.08 | 0.00 | 91 | 1006.7 |
| 20260505060010 | 44 | 88 | 0.0 | 2.6 | 0.02 | 0.08 | 0.00 | 91 | 1006.8 |
| 20260505054510 | 45 | 96 | 2.6 | 7.0 | 0.02 | 0.07 | 0.07 | 90 | 1006.8 |
| 20260505053012 | 44 | 267 | 0.0 | 5.2 | 0.03 | 0.07 | 0.07 | 90 | 1006.5 |
| 20260505051513 | 44 | 296 | 3.5 | 9.6 | 0.02 | 0.06 | 0.06 | 90 | 1006.7 |
| 20260505041605 | 46 | 311 | 0.0 | 4.3 | 0.04 | 0.04 | 0.04 | 85 | 1006.6 |
| 20260505040058 | 47 | 261 | 1.7 | 4.3 | 0.02 | 0.02 | 0.02 | 82 | 1006.5 |
| 20260505034554 | 48 | 257 | 2.6 | 8.7 | 0.00 | 0.00 | 0.00 | 77 | 1006.5 |
| 20260505033052 | 50 | 249 | 6.1 | 8.7 | 0.00 | 0.00 | 0.00 | 67 | 1006.0 |
| 20260505031602 | 49 | 248 | 2.6 | 4.3 | 0.00 | 0.00 | 0.00 | 64 | 1005.8 |
| 20260505030050 | 49 | 50 | 0.0 | 0.0 | 0.00 | 0.00 | 0.00 | 65 | 1005.6 |
| 20260505024558 | 49 | 50 | 0.0 | 2.6 | 0.00 | 0.00 | 0.00 | 64 | 1005.6 |
| 20260505023049 | 50 | 301 | 0.0 | 2.6 | 0.00 | 0.00 | 0.00 | 65 | 1005.1 |
| 20260505021553 | 50 | 301 | 0.9 | 1.7 | 0.00 | 0.00 | 0.00 | 65 | 1005.0 |
| 20260505020047 | 50 | 301 | 0.9 | 3.5 | 0.00 | 0.00 | 0.00 | 64 | 1005.1 |
| 20260505014603 | 51 | 304 | 1.7 | 5.2 | 0.00 | 0.00 | 0.00 | 63 | 1004.8 |
| 20260505013049 | 52 | 324 | 6.1 | 15.6 | 0.00 | 0.00 | 0.00 | 60 | 1004.8 |
| 20260505011555 | 53 | 292 | 1.7 | 9.6 | 0.00 | 0.00 | 0.00 | 53 | 1004.7 |
| 20260505010042 | 54 | 338 | 7.0 | 14.8 | 0.00 | 0.00 | 0.00 | 50 | 1004.6 |
| 20260505004543 | 55 | 250 | 2.6 | 6.1 | 0.00 | 0.00 | 0.00 | 45 | 1004.2 |
| 20260505003040 | 55 | 236 | 3.5 | 7.0 | 0.00 | 0.00 | 0.00 | 45 | 1003.9 |
| 20260505001540 | 55 | 137 | 6.1 | 8.7 | 0.00 | 0.00 | 0.00 | 46 | 1003.9 |
| 20260505000050 | 55 | 154 | 7.0 | 13.0 | 0.00 | 0.00 | 0.00 | 45 | 1003.6 |
| 20260504234546 | 55 | 114 | 11.3 | 18.2 | 0.00 | 0.00 | 0.00 | 45 | 1003.6 |
| 20260504233100 | 59 | 355 | 5.2 | 23.5 | 0.00 | 0.00 | 0.00 | 41 | 1003.2 |
| 20260504231538 | 60 | 30 | 3.5 | 14.8 | 0.00 | 0.00 | 0.00 | 33 | 1003.0 |
| 20260504230038 | 61 | 51 | 6.1 | 13.0 | 0.00 | 0.00 | 0.00 | 31 | 1002.1 |
| 20260504224539 | 64 | 360 | 3.5 | 13.9 | 0.00 | 0.00 | 0.00 | 26 | 1001.7 |
| 20260504223053 | 65 | 25 | 3.5 | 7.8 | 0.00 | 0.00 | 0.00 | 26 | 1001.5 |
| 20260504221537 | 65 | 36 | 0.9 | 8.7 | 0.00 | 0.00 | 0.00 | 25 | 1001.6 |
| 20260504220033 | 66 | 355 | 3.5 | 7.8 | 0.00 | 0.00 | 0.00 | 25 | 1001.6 |
| 20260504214532 | 65 | 292 | 4.3 | 9.6 | 0.00 | 0.00 | 0.00 | 24 | 1001.8 |
| 20260504213045 | 67 | 5 | 8.7 | 12.2 | 0.00 | 0.00 | 0.00 | 25 | 1001.8 |
| 20260504211534 | 67 | 346 | 4.3 | 11.3 | 0.00 | 0.00 | 0.00 | 26 | 1001.9 |
| 20260504210030 | 69 | 5 | 7.0 | 13.0 | 0.00 | 0.00 | 0.00 | 23 | 1002.0 |
| 20260504204540 | 71 | 35 | 6.1 | 14.8 | 0.00 | 0.00 | 0.00 | 22 | 1002.1 |
| 20260504203026 | 70 | 49 | 7.0 | 16.5 | 0.00 | 0.00 | 0.00 | 23 | 1002.1 |
| 20260504201527 | 68 | 5 | 2.6 | 13.9 | 0.00 | 0.00 | 0.00 | 24 | 1002.4 |
| 20260504200025 | 68 | 5 | 4.3 | 13.0 | 0.00 | 0.00 | 0.00 | 24 | 1002.5 |
| 20260504194523 | 68 | 40 | 5.2 | 16.5 | 0.00 | 0.00 | 0.00 | 24 | 1002.5 |
| 20260504193025 | 68 | 355 | 6.1 | 14.8 | 0.00 | 0.00 | 0.00 | 23 | 1002.5 |
| 20260504191524 | 69 | 17 | 7.8 | 14.8 | 0.00 | 0.00 | 0.00 | 24 | 1002.2 |
| 20260504190022 | 67 | 9 | 9.6 | 16.5 | 0.00 | 0.00 | 0.00 | 22 | 1002.2 |
| 20260504184521 | 69 | 350 | 2.6 | 8.7 | 0.00 | 0.00 | 0.00 | 21 | 1002.3 |
| 20260504183019 | 70 | 53 | 0.9 | 12.2 | 0.00 | 0.00 | 0.00 | 19 | 1002.5 |
| 20260504181517 | 68 | 334 | 3.5 | 14.8 | 0.00 | 0.00 | 0.00 | 21 | 1002.5 |
| 20260504180017 | 68 | 311 | 1.7 | 13.9 | 0.00 | 0.00 | 0.00 | 22 | 1002.7 |
| 20260504174512 | 67 | 300 | 1.7 | 7.0 | 0.00 | 0.00 | 0.00 | 22 | 1003.2 |
| 20260504173008 | 67 | 306 | 8.7 | 14.8 | 0.00 | 0.00 | 0.00 | 22 | 1003.6 |
| 20260504171506 | 67 | 270 | 8.7 | 15.6 | 0.00 | 0.00 | 0.00 | 22 | 1003.9 |
| 20260504160104 | 65 | 302 | 7.0 | 13.9 | 0.00 | 0.00 | 0.00 | 22 | 1004.3 |